Flag for Norway Weather past 2 weeks in Fosnavåg, Norway

Now
55 °F

Cool.


Feels Like: 55 °F
Forecast: 53 / 57 °F
Wind: 3 mph from West

Location: Svinoy Fyr

Current Time: Aug 1, 2015 at 11:13:30 PM

Latest Report: Aug 1, 2015 at 10:00 PM


Visibility: N/A

Pressure: 29.87 "Hg

Humidity: 82%

Dew point: 49 °F

Location of FosnavågLocation

Historic Weather in Fosnavåg — Graph

°F

Fosnavåg temperature yesterday

Maximum temperature yesterday: 53 °F (at 7:00 PM)
Minimum temperature yesterday: 49 °F (at 2:00 AM)
Average temperature yesterday: 51 °F

Past Weeks' High & Low Weather Summary

 TemperatureHumidityPressure
High56 °F (Aug 1, 5:00 PM)93% (Jul 30, 5:00 AM)29.93 "Hg (Jul 30, 5:00 AM)
Low49 °F (Jul 31, 2:00 AM)66% (Jul 31, 7:00 PM)29.47 "Hg (Jul 27, 8:00 AM)
Average53 °F78%29.75 "Hg
* Reported Jul 18 8:00 AM — Aug 1 9:00 PM, Fosnavåg, Weather by CustomWeather, © 2015

Note: Actual official high and low records may vary slightly from our data, if they occured in-between our weather recording intervals... More about our weather records

Advertising

Fosnavåg weather history for previous 24 hours

 ConditionsComfort  
Time TempWeatherWind HumidityBarometerVisibility
9:00 PM
Sat, Aug 1
55 °FCool.6 mph82%29.85 "HgN/A
5:00 PM56 °FCool.3 mph76%29.89 "HgN/A
4:00 PM55 °FCool.3 mph79%29.90 "HgN/A
3:00 PM55 °FCool.3 mph79%29.90 "HgN/A
2:00 PM55 °FCool.3 mph77%29.90 "HgN/A
1:00 PM55 °FCool.2 mph75%29.90 "HgN/A
12:00 PM55 °FCool.2 mph72%29.90 "HgN/A
11:00 AM54 °FCool.2 mph68%29.90 "HgN/A
10:00 AM53 °FCool.3 mph70%29.90 "HgN/A
9:00 AM52 °FCool.5 mph77%29.90 "HgN/A
8:00 AM51 °FCool.5 mph77%29.90 "HgN/A
7:00 AM51 °FCool.5 mph77%29.90 "HgN/A
4:00 AM51 °FCool.3 mph72%29.92 "HgN/A
3:00 AM51 °FCool.3 mph74%29.92 "HgN/A
2:00 AM52 °FCool.5 mph73%29.92 "HgN/A
1:00 AM51 °FCool.6 mph73%29.93 "HgN/A
12:00 AM51 °FCool.7 mph67%29.92 "HgN/A
11:00 PM
Fri, Jul 31
52 °FCool.8 mph73%29.92 "HgN/A
Weather by CustomWeather, © 2015

See weather overviewHow to use our weather pages